Flag for Switzerland Weather past 2 weeks in Kriens, Lucerne, Switzerland

Now
57 °F

Cool.


Feels Like: 57 °F
Forecast: 54 / 71 °F
Wind: 1 mph from Southwest

Location: Giswil

Current Time: Sep 20, 2014 at 8:51:21 AM

Latest Report: Sep 20, 2014 at 8:00 AM


Visibility: N/A

Pressure: 30.04 "Hg

Humidity: 99%

Dew point: 57 °F

Location of KriensLocation

Historic Weather in Kriens — Graph

°F

Kriens temperature yesterday

Maximum temperature yesterday: 74 °F (at 4:00 PM)
Minimum temperature yesterday: 53 °F (at 1:00 AM)
Average temperature yesterday: 62 °F

Past Weeks' High & Low Weather Summary

 TemperatureHumidityPressure
High76 °F (Sep 7, 4:00 PM)100% (Sep 6, 3:00 AM)30.14 "Hg (Sep 6, 3:00 AM)
Low49 °F (Sep 16, 7:00 AM)52% (Sep 16, 1:00 PM)29.81 "Hg (Sep 17, 5:00 PM)
Average61 °F86%29.99 "Hg
* Reported Sep 5 7:00 AM — Sep 20 7:00 AM, Kriens, Weather by CustomWeather, © 2014

Note: Actual official high and low records may vary slightly from our data, if they occured in-between our weather recording intervals... More about our weather records

Advertising

Kriens weather history for previous 24 hours

 ConditionsComfort  
Time TempWeatherWind HumidityBarometerVisibility
7:00 AM
Sep 20
54 °FCool.1 mph100%30.05 "HgN/A
6:00 AM54 °FCool.1 mph99%30.03 "HgN/A
5:00 AM56 °FCool.3 mph98%30.03 "HgN/A
4:00 AM55 °FCool.2 mph99%30.03 "HgN/A
3:00 AM56 °FCool.1 mph99%30.02 "HgN/A
2:00 AM57 °FCool.1 mph99%30.03 "HgN/A
1:00 AM60 °FCool.1 mph97%30.03 "HgN/A
12:00 AM62 °FCool.2 mph97%30.02 "HgN/A
10:00 PM
Sep 19
62 °FCool.2 mph93%30.00 "HgN/A
9:00 PM62 °FCool.3 mph96%30.00 "HgN/A
8:00 PM63 °FMild.2 mph93%29.98 "HgN/A
7:00 PM68 °FMild.2 mph86%29.96 "HgN/A
6:00 PM70 °FMild.1 mph76%29.93 "HgN/A
5:00 PM72 °FMild.2 mph65%29.93 "HgN/A
4:00 PM74 °FMild.2 mph58%29.92 "HgN/A
3:00 PM72 °FMild.1 mph56%29.93 "HgN/A
2:00 PM71 °FMild.1 mph59%29.94 "HgN/A
1:00 PM70 °FMild.1 mph61%29.95 "HgN/A
12:00 PM69 °FMild.1 mph63%29.95 "HgN/A
11:00 AM66 °FMild.1 mph70%29.96 "HgN/A
10:00 AM63 °FMild.2 mph80%29.98 "HgN/A
9:00 AM59 °FCool.2 mph90%29.99 "HgN/A
8:00 AM54 °FCool.1 mph98%29.99 "HgN/A
Weather by CustomWeather, © 2014

See weather overviewHow to use our weather pages